Regional Weather Roundup
Issued by NWS

Home | Current Version | Previous Version | Text Only | Print | Product List | Glossary On
Versions: 1 2 3 4 5 6 7 8 9 10 11 12 13 14 15 16 17 18 19 20 21 22 23 24 25 26 27 28 29 30 31 32 33 34 35 36 37 38 39 40 41 42 43 44 45 46 47 48 49 50
000
ASUS42 KTBW 100517
RWRFL
FLORIDA REGIONAL WEATHER ROUNDUP
NATIONAL WEATHER SERVICE TAMPA BAY RUSKIN FL
1200 AM EST SAT DEC 10 2016

NOTE: "FAIR" INDICATES FEW OR NO CLOUDS BELOW 12,000 FEET WITH NO
SIGNIFICANT WEATHER AND/OR OBSTRUCTIONS TO VISIBILITY.

FLZ001>010-012>015-112-114-115-100600-
PANHANDLE FLORIDA

CITY           SKY/WX    TMP DP  RH WIND       PRES   REMARKS
PENSACOLA      CLEAR     39  22  50 N10       30.47S WCI  32
PENSACOLA NAS  CLEAR     37  23  56 N7        30.48R WCI  32
MILTON NAS     CLEAR     34  21  59 N5        30.48  WCI  30
CRESTVIEW      CLEAR     33  22  63 N5        30.48S WCI  29
DUKE FIELD     PTCLDY    29  24  79 N5        30.45S WCI  24
VALPARAISO     CLEAR     37  20  50 N9        30.46S WCI  31
MARY ESTHER    CLEAR     35  22  58 N10       30.46R WCI  27
TRI COUNTY     FAIR      36  25  64 N5        30.47S WCI  32
PANAMA CITY    FAIR      37  25  61 N6        30.43F WCI  32
TYNDALL AFB    CLEAR     41  26  54 N7        30.44S WCI  37
APALACHICOLA   CLEAR     41  24  51 N9        30.43S WCI  35

STATION/POSITION SKY/WX   TEMP    WIND        PRES    WAVE   SWELL
                          AIR SEA DIR/SP/G            HT/PER HT/PER
                          (F)     (DEG/KT/KT) (MB)    (FT/S) (FT/S)
30.1N   87.6W              48 69   30/ 19/ 23 1031.8R   3/ 5
29.2N   88.2W              55 74   30/ 16/ 21 1031.3R   5/ 6
28.8N   86.0W              56 74              1029.6R   4/ 5
PANAMA CITY BEAC           39 65   10/  8/ 11 1030.8F
TOWER C                    51      30/ 20/ 23 1030.5R
28.5N   84.5W              60 73   60/ 16/ 19 1028.4R   4/ 5

$$
FLZ011-016>038-118-127-128-134-139-239-100600-
NORTH FLORIDA

CITY           SKY/WX    TMP DP  RH WIND       PRES   REMARKS
MARIANNA       CLEAR     35  29  78 CALM      30.45S
TALLAHASSEE    CLEAR     33  26  75 CALM      30.44S
PERRY          CLEAR     39  23  51 N5        30.43F WCI  36
CROSS CITY     PTCLDY    37  28  70 N3        30.41F
LAKE CITY      FAIR      36  28  75 N3        30.41F
GAINESVILLE    PTCLDY    42  32  67 N7        30.40S WCI  38
WILLISTON      CLEAR     45  36  70 CALM      30.40S
PALATKA        FAIR      45  36  70 N7        30.38F WCI  41
MAYPORT NAS    PTCLDY    49  37  63 NE10      30.40F WCI  45
JACKSONVILLE   MOCLDY    41  29  62 N9        30.41F WCI  35
JAX NAS        CLOUDY    49  31  49 N13       30.41F WCI  44
FERNANDINA BEA FAIR      48  36  61 N8        30.39F WCI  45
ST AUGUSTINE   CLOUDY    53  38  56 NE15      30.39F
PALM COAST     FAIR      53  43  68 MISG      30.35F

STATION/POSITION SKY/WX   TEMP    WIND        PRES    WAVE   SWELL
                          AIR SEA DIR/SP/G            HT/PER HT/PER
                          (F)     (DEG/KT/KT) (MB)    (FT/S) (FT/S)
SHELL POINT      NOT AVBL
KEATON BEACH               39      30/  6/  8 1029.9F
CEDAR KEY                  48      30/  9/ 12 1029.3F
FERNANDINA                 49 63  350/  7/ 13 1029.5F
30.7N   81.3W                 64                N/A     3/ 4
MAYPORT                    47 64  340/  6/ 11 1029.3F
31.4N   80.9W              51 62   40/ 14/ 17 1030.1F   3/ 6   2/ 8
ST AUGUSTINE               55 63   20/ 19/ 21 1029.2F

$$
FLZ040-043>046-052-053-057-058-063-144-100600-
INTERIOR CENTRAL FLORIDA

CITY           SKY/WX    TMP DP  RH WIND       PRES   REMARKS
OCALA          MOCLDY    46  28  49 N6        30.38S WCI  43
THE VILLAGES     N/A     50  41  71 SE7G14    30.26F
LEESBURG       MOCLDY    48  36  63 N8        30.36F WCI  44
SANFORD        CLOUDY    52  42  69 N8        30.33F
ORLANDO EXEC   PTCLDY    53  42  66 N8        30.32F
ORLANDO INTL   CLOUDY    52  42  69 N9        30.32F
KISSIMMEE      CLOUDY    53  42  66 N10       30.33F
WINTER HAVEN   CLOUDY    52  41  66 N13       30.33F
LAKELAND       PTCLDY    50  43  76 N9        30.34S
BARTOW         FAIR      52  41  66 N13       30.32F
OKEECHOBEE     MOCLDY    54  48  82 N7        30.27F

$$
FLZ041-047-054-059-064-141-147-100600-
EAST CENTRAL FLORIDA

CITY           SKY/WX    TMP DP  RH WIND       PRES   REMARKS
DAYTONA BEACH  MOCLDY    54  45  71 NW6       30.34F
DELAND         PTCLDY    48  41  76 N8        30.34F WCI  45
JFK SPACE CTR  PTCLDY    61  51  69 N10       30.28F
CAPE CANAVERAL PTCLDY    63  53  69 N10G17    30.27F
PATRICK AFB    PTCLDY    63  55  76 N15       30.27F
MELBOURNE      PTCLDY    55  51  86 NW8       30.28F
VERO BEACH     CLOUDY    68  55  63 N8        30.26S
FT PIERCE      CLOUDY    67  55  65 NE7       30.25S
STUART         CLOUDY    72  61  68 NE10      30.24F

STATION/POSITION SKY/WX   TEMP    WIND        PRES    WAVE   SWELL
                          AIR SEA DIR/SP/G            HT/PER HT/PER
                          (F)     (DEG/KT/KT) (MB)    (FT/S) (FT/S)
TRIDENT PIER               62 71  360/  9/ 12 1025.4F
28.4N   80.5W                 71                N/A     3/ 5

$$
FLZ050-056-061-142-242-148-248-149-249-151-251-155-255-
160-260-100600-
WEST CENTRAL FLORIDA

CITY           SKY/WX    TMP DP  RH WIND       PRES   REMARKS
CRYSTAL RIVER  FAIR      46  34  61 N3        30.38F
INVERNESS      FAIR      46  36  66 N6        30.37F WCI  43
BROOKSVILLE      N/A    N/A N/A N/A MISG        N/A
CLEARWATER AIR FAIR      50  37  62 NE6       30.35S
ST PETE CLEARW PTCLDY    54  42  64 N10G21    30.34F
TAMPA INTL     MOCLDY    53  40  61 N9        30.35S
TAMPA EXEC     PTCLDY    52  41  66 N6        30.35S
PLANT CITY     MOCLDY    52  45  76 N6        30.35F
MACDILL AFB    CLOUDY    52  41  66 NE10      30.33F
PETER O KNIGHT PTCLDY    54  43  66 NE14G21   30.34F
ST PETERSBURG  PTCLDY    55  47  74 NE20      30.33S
SARASOTA       PTCLDY    54  42  64 NE9G20    30.31S
VENICE         FAIR      55  46  71 NE12      30.31S

STATION/POSITION SKY/WX   TEMP    WIND        PRES    WAVE   SWELL
                          AIR SEA DIR/SP/G            HT/PER HT/PER
                          (F)     (DEG/KT/KT) (MB)    (FT/S) (FT/S)
CLEARWATER BEACH           54 64   40/  8/ 14 1027.7F
MIDDLE TAMPA BAY           56      40/ 20/ 23 1027.6F
VENICE                     55 69   20/ 12/ 14 1025.7F

$$
FLZ066-069-070-075>078-162-262-165-265-100600-
SOUTHWEST FLORIDA AND KEYS

CITY           SKY/WX    TMP DP  RH WIND       PRES   REMARKS
PUNTA GORDA    CLOUDY    54  46  74 N8        30.31S
FT MYERS       PTCLDY    58  48  69 NE13      30.28S
SOUTHWEST INTL MOCLDY    57  47  69 N9        30.27F
NAPLES         CLOUDY    60  50  69 N10       30.25S
MARCO ISLAND   CLOUDY    59  48  67 NE12G21   30.25S
MARATHON       PTCLDY    70  62  76 N18G25    30.19F
KEY WEST NAS   CLOUDY    68  63  84 NE18G30   30.19F
KEY WEST INTL  CLOUDY    69  65  86 N17G26    30.20S

STATION/POSITION SKY/WX   TEMP    WIND        PRES    WAVE   SWELL
                          AIR SEA DIR/SP/G            HT/PER HT/PER
                          (F)     (DEG/KT/KT) (MB)    (FT/S) (FT/S)
NAPLES                        71              1024.3F
26.0N   85.6W              68 76   40/ 19/ 25 1026.1R   8/ 8   2/12
DRY TORTUGAS               69      50/ 25/ 27 1023.0F
SAND KEY                   69      40/ 26/ 31 1022.4F
LONG KEY                   67 76   10/ 19/ 22 1022.7F
MOLASSES REEF              67 78  360/ 17/ 18 1022.4R

$$
FLZ067-068-071>074-168-172>174-100600-
SOUTHEAST FLORIDA

CITY           SKY/WX    TMP DP  RH WIND       PRES   REMARKS
W PALM BEACH   HVY RAIN  63  62  97 W6        30.24S FOG
FT LAUDER-EXEC CLOUDY    65  58  78 N9        30.21F
FT LAUDERDALE  LGT RAIN  66  60  81 N9        30.20F
POMPANO BEACH  CLOUDY    64  62  93 NW9       30.21S
PEMBROKE PINES MOCLDY    65  58  78 NW9       30.23S
OPA LOCKA      LGT RAIN  65  58  78 NW9       30.22F
MIAMI          LGT RAIN  62  59  90 NW7       30.21F
WEST KENDALL   CLOUDY    63  57  81 N15G23    30.21S
HOMESTEAD      CLOUDY    65  62  92 N14       30.20F

STATION/POSITION SKY/WX   TEMP    WIND        PRES    WAVE   SWELL
                          AIR SEA DIR/SP/G            HT/PER HT/PER
                          (F)     (DEG/KT/KT) (MB)    (FT/S) (FT/S)
PORT EVERGLADES            67     320/  8/ 12 1022.7F
VIRGINIA KEY               66 83  340/  9/ 13 1023.2F
LAKE WORTH                 69 78   40/ 20/ 22 1022.8F
FOWEY ROCKS                68 77  340/ 17/ 18 1023.2F

$$




USA.gov is the U.S. government's official web portal to all federal, state and local government web resources and services.